SCP
0 0 0 0 0 0 0 0 0 0 0 0 0 0 0 0 -0 0 0 0 0 0 -0 -0 0 0 0 0 0 0 0 0 0 0 0 0 0 0
0 0 0 0 0 0 0 0 0 0 0 0 0 0 0 0 0 0 0 0 0 0 -0 -0 0 0 0 0 0 0 0 0 0 0 0 0 0 0
0 0 0 0 0 0 0 0 0 0 0 0 0 0 0 0 0 0 0 0 0 0 -0 -0 0 0 0 0 0 0 0 0 0 0 0 0 0 0
0 0 0 0 0 0 0 0 0 0 0 0 0 0 0 0 0 0 0 0 0 0 0 -0 -0 0 0 0 0 0 0 0 0 0 0 0 0 0
0 0 0 0 0 0 0 0 0 0 0 0 0 0 0 0 0 0 0 0 0 0 0 0 0 -0 0 0 0 0 0 0 0 0 0 0 0 0
0 0 0 0 0 0 0 0 0 0 0 0 0 0 0 0 0 0 0 0 0 0 0 0 0 -0 -0 0 0 0 0 0 0 0 0 0 0 0
0 0 0 0 0 0 0 0 0 0 0 0 0 0 0 0 0 0 0 0 0 0 0 0 0 0 0 0 0 0 0 0 0 0 0 0 0 0
0 0 0 0 0 0 0 0 0 0 0 0 0 0 0 0 0 0 0 0 0 0 0 0 0 0 0 0 0 0 0 0 0 0 0 0 0 0
0 0 0 0 0 0 0 0 0 0 0 0 0 0 0 0 0 0 0 0 0 0 0 0 0 0 0 0 -0 0 0 0 0 0 0 0 0 0
0 0 0 0 0 0 0 0 0 0 0 0 0 -0 0 0 0 0 0 0 0 0 0 0 0 0 0 0 -0 0 0 0 0 0 0 0 0 0
0 0 0 0 0 0 0 0 0 0 0 0 0 0 0 0 0 0 0 0 0 0 0 0 0 0 0 0 0 0 0 0 0 0 0 0 0 0
0 0 0 0 0 0 0 0 0 0 0 0 0 -0 -0 0 0 0 0 0 0 0 0 0 0 0 0 0 0 0 0 0 -0 0 0 0 0 0
0 0 0 0 0 0 0 0 0 0 0 0 -0 -0 -0 -0 0 0 0 0 0 0 0 0 0 0 0 0 0 0 0 0 0 0 0 0 0 0
0 0 0 0 0 0 0 0 0 0 0 0 0 0 -0 0 0 0 0 0 0 0 0 0 0 0 0 0 0 0 0 0 0 0 0 0 0 0
0 0 0 0 0 0 0 0 0 0 0 0 0 0 0 0 0 0 0 0 0 0 0 0 0 0 0 0 0 0 0 0 0 0 0 0 0 0
0 0 0 0 0 0 0 0 0 0 0 0 0 0 0 0 0 0 0 0 0 0 0 0 0 0 0 0 0 0 0 0 0 0 0 0 0 0
0 0 0 0 0 0 0 0 0 0 0 0 0 0 0 0 0 0 0 0 0 0 0 0 0 0 0 0 0 0 0 0 0 0 0 0 0 0
0 0 0 0 0 0 0 0 0 0 0 0 0 0 0 0 -0 0 0 0 0 0 0 0 0 0 0 0 0 0 0 0 0 0 0 0 0 0
0 0 0 0 0 0 0 0 0 0 0 0 0 0 0 0 0 0 0 0 0 0 0 0 0 0 0 0 0 0 0 0 0 0 0 0 0 0
0 0 0 0 0 0 0 0 0 0 0 0 0 0 0 0 0 0 0 0 0 0 0 0 0 0 0 0 0 0 0 0 0 0 0 0 0 0
0 0 0 0 0 0 0 0 0 0 0 0 0 0 0 0 0 0 0 0 0 0 0 0 0 0 0 0 0 0 0 0 0 0 0 0 0 0
0 0 0 0 0 0 0 0 0 0 0 0 0 0 0 0 0 0 0 0 0 0 0 0 0 0 0 0 0 0 0 0 0 0 0 0 0 0
0 0 0 0 0 0 0 0 0 0 0 0 0 0 0 0 0 0 0 0 0 0 0 0 0 0 0 0 0 0 0 0 0 0 0 0 0 0
Wind_Speed_500mb
21 23 26 27 23 16 13 14 18 18 34 9 6 15 2 24 29 32 32 32 33 30 30 26 18 14 13 15 13 13 15 19 23 29 34 39 41 35
29 24 23 31 29 23 17 12 13 13 13 25 16 10 11 15 17 24 23 30 31 30 32 27 21 17 14 16 12 14 16 21 24 30 36 40 36 27
32 33 34 30 30 29 26 19 17 15 16 26 22 15 10 22 16 19 18 26 34 37 33 29 22 19 17 16 12 12 18 22 23 27 35 36 29 20
40 35 32 29 33 31 23 27 26 18 18 24 24 24 16 19 23 24 22 28 33 34 32 30 24 23 23 18 12 12 18 20 22 27 32 29 22 20
42 45 42 40 40 35 38 37 26 24 24 18 23 28 21 22 24 20 22 24 26 26 29 29 26 28 26 19 15 13 17 20 20 24 30 23 20 22
56 55 49 44 42 42 46 43 34 30 25 19 20 20 23 23 25 23 19 19 26 25 26 29 32 34 30 21 17 14 14 16 19 21 28 20 19 22
59 52 43 38 37 41 43 40 43 46 39 34 25 21 18 17 27 26 23 16 22 24 25 30 27 33 30 26 16 15 9 14 16 19 23 16 16 20
53 39 30 31 28 23 30 36 36 37 34 27 31 29 17 22 18 16 23 26 27 31 31 33 27 24 28 25 18 11 8 12 14 16 20 12 13 18
35 30 31 32 31 30 29 32 33 31 30 29 32 31 30 14 22 20 19 23 24 21 27 31 26 18 18 17 19 11 9 11 11 15 17 8 10 17
27 28 26 35 35 33 31 28 34 39 36 39 41 40 34 16 16 24 21 24 22 15 25 35 33 27 24 19 19 13 10 12 10 12 14 5 4 16
29 26 25 28 29 33 35 35 35 40 48 57 54 52 45 37 35 35 35 29 29 38 28 36 37 33 30 24 26 17 14 14 11 9 10 4 2 12
32 26 32 29 33 32 33 38 41 46 52 49 55 71 65 51 43 42 35 32 32 36 40 47 41 42 35 34 30 23 16 16 11 7 9 8 2 7
40 45 30 29 36 40 41 46 50 54 56 58 56 51 58 65 44 34 33 28 32 38 38 43 41 47 41 23 39 30 20 17 12 6 9 11 6 4
46 41 34 39 46 49 51 50 50 45 53 63 62 54 50 52 47 34 26 32 32 34 39 50 53 63 56 41 30 34 27 25 17 8 12 16 11 3
40 40 42 41 39 39 40 45 46 46 40 46 46 45 40 39 44 45 41 34 31 35 38 45 48 57 54 53 44 29 34 33 25 13 16 17 14 5
52 53 54 56 61 68 54 37 31 36 37 38 38 39 38 39 42 41 42 44 40 35 37 34 48 58 61 59 46 34 33 28 34 27 15 21 17 10
57 62 65 67 64 59 53 42 29 32 38 38 37 39 37 41 40 33 34 36 40 40 39 31 45 50 58 58 44 32 38 33 27 29 21 15 25 17
60 64 68 63 55 54 55 49 39 36 36 33 36 33 36 40 41 33 26 21 33 38 39 36 39 43 45 62 49 39 40 33 26 29 22 18 32 24
58 61 63 62 60 55 50 43 41 37 38 40 34 34 33 32 32 37 38 30 18 34 40 38 42 50 59 42 54 50 49 42 33 38 26 21 38 32
52 53 50 44 42 42 35 30 29 29 33 43 42 38 36 34 35 34 29 28 22 23 43 44 42 50 50 62 55 62 60 43 41 40 33 31 40 36
48 48 45 42 38 34 30 29 29 28 27 32 36 36 34 36 36 35 37 28 30 21 36 42 42 42 61 53 57 66 62 46 37 25 30 38 45 43
41 47 45 42 37 35 38 34 32 30 28 33 36 37 38 39 37 36 34 33 33 24 28 36 39 44 55 65 59 67 66 60 47 29 27 25 55 52
44 37 39 43 43 39 34 35 34 36 31 30 33 35 33 35 36 36 30 27 33 30 26 38 36 40 49 55 58 68 72 72 57 46 40 27 35 31
Wind_Direction_500mb
308 293 311 305 310 323 355 359 349 343 319 312 353 224 134 178 226 229 229 235 233 238 238 238 241 255 260 271 278 299 309 320 330 332 333 332 334 331
296 296 291 296 305 309 328 327 350 354 346 315 320 313 237 197 195 241 227 239 229 233 233 233 238 250 252 266 275 299 315 325 331 335 333 336 336 339
288 287 284 286 283 304 314 329 320 342 338 350 332 321 265 221 223 226 225 238 225 228 231 233 238 241 248 260 273 313 323 329 332 338 334 340 341 359
296 294 283 291 282 280 295 311 317 342 331 339 356 330 295 264 238 245 241 236 222 231 238 241 239 241 248 257 279 323 325 333 332 338 336 343 348 0
296 299 295 287 278 285 287 279 304 308 318 340 331 344 307 277 281 243 250 230 228 233 237 242 239 241 245 261 286 318 330 339 330 338 337 343 345 358
302 303 298 287 275 275 274 277 281 287 311 322 310 313 326 269 270 262 244 248 244 258 257 247 236 239 241 251 279 310 335 339 328 340 339 344 346 360
304 306 302 294 280 269 276 282 277 279 281 301 320 288 302 331 268 245 261 284 265 263 264 252 247 250 248 251 267 294 339 339 331 337 340 344 348 9
312 309 307 307 301 277 266 266 277 290 278 263 272 298 281 299 296 277 280 245 258 259 261 256 244 254 249 249 252 257 329 344 330 334 336 340 345 11
314 312 313 318 320 306 283 263 257 268 279 266 254 266 284 283 280 281 267 264 277 274 271 264 251 244 252 232 232 238 316 325 323 327 330 339 350 10
310 313 307 313 310 300 298 290 271 254 255 257 255 243 252 234 237 268 280 272 260 251 239 252 257 240 241 238 244 251 299 321 307 320 316 315 341 11
318 300 296 300 299 295 286 285 284 277 257 260 261 256 256 253 251 258 266 285 264 246 251 235 248 240 240 247 247 252 290 290 280 302 289 250 33 353
306 306 291 291 290 287 283 282 282 284 285 278 260 253 253 248 249 252 252 259 253 256 245 229 234 232 220 230 232 243 259 245 248 272 257 206 254 2
302 305 297 289 284 281 282 282 278 283 282 279 277 268 251 246 247 246 246 247 250 248 249 228 229 225 219 222 226 226 230 220 223 242 216 186 201 11
300 300 298 282 273 277 285 289 292 287 280 278 278 273 265 246 237 235 236 244 253 257 248 247 241 215 211 221 224 211 207 193 197 202 187 179 164 120
299 298 292 289 290 290 292 289 281 285 289 288 282 268 260 250 248 242 234 242 258 244 253 239 227 214 219 227 229 216 195 189 184 185 180 168 176 151
288 288 288 286 286 295 297 291 279 284 284 291 288 277 260 249 242 241 246 237 251 257 249 242 236 216 216 223 231 220 198 194 185 186 185 187 185 184
288 284 284 284 288 290 293 295 266 273 277 280 286 285 266 256 252 245 243 248 246 260 249 248 239 220 220 205 212 212 199 202 196 197 193 213 190 185
283 282 284 285 282 285 287 283 280 253 260 273 276 282 279 268 264 250 240 247 246 256 245 253 229 208 226 210 205 205 201 206 196 196 212 235 183 185
278 280 283 286 286 284 283 287 279 262 247 246 256 268 272 273 266 260 248 247 279 250 239 245 232 222 217 195 195 202 216 204 192 192 216 220 182 183
282 280 282 285 286 285 282 279 275 267 262 243 249 256 261 262 258 264 252 266 262 269 238 237 229 219 223 204 188 189 201 213 201 200 200 185 181 186
284 284 282 284 286 280 273 271 267 266 261 250 248 248 251 253 254 260 250 253 248 282 246 230 233 218 214 213 195 186 193 201 216 226 208 187 182 188
288 281 283 284 282 276 263 261 266 262 265 255 250 253 254 250 253 256 250 249 250 273 249 231 225 223 213 204 200 193 189 192 196 203 208 212 189 188
296 290 275 271 273 272 267 259 255 260 260 261 256 249 252 254 250 259 249 245 247 239 275 219 225 218 217 216 212 203 194 187 187 186 197 191 192 201
Wind_Speed_850mb
21 23 26 27 23 16 13 14 18 18 34 9 6 15 2 24 29 32 32 32 33 30 30 26 18 14 13 15 13 13 15 19 23 29 34 39 41 35
29 24 23 31 29 23 17 12 13 13 13 25 16 10 11 15 17 24 23 30 31 30 32 27 21 17 14 16 12 14 16 21 24 30 36 40 36 27
32 33 34 30 30 29 26 19 17 15 16 26 22 15 10 22 16 19 18 26 34 37 33 29 22 19 17 16 12 12 18 22 23 27 35 36 29 20
40 35 32 29 33 31 23 27 26 18 18 24 24 24 16 19 23 24 22 28 33 34 32 30 24 23 23 18 12 12 18 20 22 27 32 29 22 20
42 45 42 40 40 35 38 37 26 24 24 18 23 28 21 22 24 20 22 24 26 26 29 29 26 28 26 19 15 13 17 20 20 24 30 23 20 22
56 55 49 44 42 42 46 43 34 30 25 19 20 20 23 23 25 23 19 19 26 25 26 29 32 34 30 21 17 14 14 16 19 21 28 20 19 22
59 52 43 38 37 41 43 40 43 46 39 34 25 21 18 17 27 26 23 16 22 24 25 30 27 33 30 26 16 15 9 14 16 19 23 16 16 20
53 39 30 31 28 23 30 36 36 37 34 27 31 29 17 22 18 16 23 26 27 31 31 33 27 24 28 25 18 11 8 12 14 16 20 12 13 18
35 30 31 32 31 30 29 32 33 31 30 29 32 31 30 14 22 20 19 23 24 21 27 31 26 18 18 17 19 11 9 11 11 15 17 8 10 17
27 28 26 35 35 33 31 28 34 39 36 39 41 40 34 16 16 24 21 24 22 15 25 35 33 27 24 19 19 13 10 12 10 12 14 5 4 16
29 26 25 28 29 33 35 35 35 40 48 57 54 52 45 37 35 35 35 29 29 38 28 36 37 33 30 24 26 17 14 14 11 9 10 4 2 12
32 26 32 29 33 32 33 38 41 46 52 49 55 71 65 51 43 42 35 32 32 36 40 47 41 42 35 34 30 23 16 16 11 7 9 8 2 7
40 45 30 29 36 40 41 46 50 54 56 58 56 51 58 65 44 34 33 28 32 38 38 43 41 47 41 23 39 30 20 17 12 6 9 11 6 4
46 41 34 39 46 49 51 50 50 45 53 63 62 54 50 52 47 34 26 32 32 34 39 50 53 63 56 41 30 34 27 25 17 8 12 16 11 3
40 40 42 41 39 39 40 45 46 46 40 46 46 45 40 39 44 45 41 34 31 35 38 45 48 57 54 53 44 29 34 33 25 13 16 17 14 5
52 53 54 56 61 68 54 37 31 36 37 38 38 39 38 39 42 41 42 44 40 35 37 34 48 58 61 59 46 34 33 28 34 27 15 21 17 10
57 62 65 67 64 59 53 42 29 32 38 38 37 39 37 41 40 33 34 36 40 40 39 31 45 50 58 58 44 32 38 33 27 29 21 15 25 17
60 64 68 63 55 54 55 49 39 36 36 33 36 33 36 40 41 33 26 21 33 38 39 36 39 43 45 62 49 39 40 33 26 29 22 18 32 24
58 61 63 62 60 55 50 43 41 37 38 40 34 34 33 32 32 37 38 30 18 34 40 38 42 50 59 42 54 50 49 42 33 38 26 21 38 32
52 53 50 44 42 42 35 30 29 29 33 43 42 38 36 34 35 34 29 28 22 23 43 44 42 50 50 62 55 62 60 43 41 40 33 31 40 36
48 48 45 42 38 34 30 29 29 28 27 32 36 36 34 36 36 35 37 28 30 21 36 42 42 42 61 53 57 66 62 46 37 25 30 38 45 43
41 47 45 42 37 35 38 34 32 30 28 33 36 37 38 39 37 36 34 33 33 24 28 36 39 44 55 65 59 67 66 60 47 29 27 25 55 52
44 37 39 43 43 39 34 35 34 36 31 30 33 35 33 35 36 36 30 27 33 30 26 38 36 40 49 55 58 68 72 72 57 46 40 27 35 31
Wind_Direction_850mb
308 293 311 305 310 323 355 359 349 343 319 312 353 224 134 178 226 229 229 235 233 238 238 238 241 255 260 271 278 299 309 320 330 332 333 332 334 331
296 296 291 296 305 309 328 327 350 354 346 315 320 313 237 197 195 241 227 239 229 233 233 233 238 250 252 266 275 299 315 325 331 335 333 336 336 339
288 287 284 286 283 304 314 329 320 342 338 350 332 321 265 221 223 226 225 238 225 228 231 233 238 241 248 260 273 313 323 329 332 338 334 340 341 359
296 294 283 291 282 280 295 311 317 342 331 339 356 330 295 264 238 245 241 236 222 231 238 241 239 241 248 257 279 323 325 333 332 338 336 343 348 0
296 299 295 287 278 285 287 279 304 308 318 340 331 344 307 277 281 243 250 230 228 233 237 242 239 241 245 261 286 318 330 339 330 338 337 343 345 358
302 303 298 287 275 275 274 277 281 287 311 322 310 313 326 269 270 262 244 248 244 258 257 247 236 239 241 251 279 310 335 339 328 340 339 344 346 360
304 306 302 294 280 269 276 282 277 279 281 301 320 288 302 331 268 245 261 284 265 263 264 252 247 250 248 251 267 294 339 339 331 337 340 344 348 9
312 309 307 307 301 277 266 266 277 290 278 263 272 298 281 299 296 277 280 245 258 259 261 256 244 254 249 249 252 257 329 344 330 334 336 340 345 11
314 312 313 318 320 306 283 263 257 268 279 266 254 266 284 283 280 281 267 264 277 274 271 264 251 244 252 232 232 238 316 325 323 327 330 339 350 10
310 313 307 313 310 300 298 290 271 254 255 257 255 243 252 234 237 268 280 272 260 251 239 252 257 240 241 238 244 251 299 321 307 320 316 315 341 11
318 300 296 300 299 295 286 285 284 277 257 260 261 256 256 253 251 258 266 285 264 246 251 235 248 240 240 247 247 252 290 290 280 302 289 250 33 353
306 306 291 291 290 287 283 282 282 284 285 278 260 253 253 248 249 252 252 259 253 256 245 229 234 232 220 230 232 243 259 245 248 272 257 206 254 2
302 305 297 289 284 281 282 282 278 283 282 279 277 268 251 246 247 246 246 247 250 248 249 228 229 225 219 222 226 226 230 220 223 242 216 186 201 11
300 300 298 282 273 277 285 289 292 287 280 278 278 273 265 246 237 235 236 244 253 257 248 247 241 215 211 221 224 211 207 193 197 202 187 179 164 120
299 298 292 289 290 290 292 289 281 285 289 288 282 268 260 250 248 242 234 242 258 244 253 239 227 214 219 227 229 216 195 189 184 185 180 168 176 151
288 288 288 286 286 295 297 291 279 284 284 291 288 277 260 249 242 241 246 237 251 257 249 242 236 216 216 223 231 220 198 194 185 186 185 187 185 184
288 284 284 284 288 290 293 295 266 273 277 280 286 285 266 256 252 245 243 248 246 260 249 248 239 220 220 205 212 212 199 202 196 197 193 213 190 185
283 282 284 285 282 285 287 283 280 253 260 273 276 282 279 268 264 250 240 247 246 256 245 253 229 208 226 210 205 205 201 206 196 196 212 235 183 185
278 280 283 286 286 284 283 287 279 262 247 246 256 268 272 273 266 260 248 247 279 250 239 245 232 222 217 195 195 202 216 204 192 192 216 220 182 183
282 280 282 285 286 285 282 279 275 267 262 243 249 256 261 262 258 264 252 266 262 269 238 237 229 219 223 204 188 189 201 213 201 200 200 185 181 186
284 284 282 284 286 280 273 271 267 266 261 250 248 248 251 253 254 260 250 253 248 282 246 230 233 218 214 213 195 186 193 201 216 226 208 187 182 188
288 281 283 284 282 276 263 261 266 262 265 255 250 253 254 250 253 256 250 249 250 273 249 231 225 223 213 204 200 193 189 192 196 203 208 212 189 188
296 290 275 271 273 272 267 259 255 260 260 261 256 249 252 254 250 259 249 245 247 239 275 219 225 218 217 216 212 203 194 187 187 186 197 191 192 201